Hourly Data Report for December 10, 2006

TORONTO CITY
ONTARIO

43°40'00.000" N
79°24'00.000" W
112.50 m
6158355
71508
XTO

Download Data

Hourly Data (December 2006)
Hourly Data Report for December 10, 2006
TIME
LST
Temp Definition
°C
Dew Point Definition
°C
Rel Hum Definition
%
Precip. Amount Definition
mm

Wind Dir Definition
10's deg

Wind Spd Definition
km/h
Visibility Definition
km
Stn Press Definition
kPa
Hmdx Definition


Wind Chill Definition


Weather Definition


00:00 4.0 -3.5 58   LegendMM LegendMM   100.55     LegendNANA
01:00 3.8 -4.3 55   LegendMM LegendMM   100.55     LegendNANA
02:00 3.6 -4.5 55   LegendMM LegendMM   100.57     LegendNANA
03:00 3.3 -4.9 55   LegendMM LegendMM   100.60     LegendNANA
04:00 3.0 -5.2 55   LegendMM LegendMM   100.61     LegendNANA
05:00 2.5 -5.3 56   LegendMM LegendMM   100.65     LegendNANA
06:00 2.0 -5.2 59   LegendMM LegendMM   100.71     LegendNANA
07:00 1.9 -5.1 60   LegendMM LegendMM   100.73     LegendNANA
08:00 1.8 -4.9 61   LegendMM LegendMM   100.77     LegendNANA
09:00 2.6 -4.6 59   LegendMM LegendMM   100.81     LegendNANA
10:00 3.8 -3.7 58   LegendMM LegendMM   100.85     LegendNANA
11:00 5.6 -2.9 54   LegendMM LegendMM   100.89     LegendNANA
12:00 6.6 -2.1 54   LegendMM LegendMM   100.81     LegendNANA
13:00 7.7 -1.0 54   LegendMM LegendMM   100.78     LegendNANA
14:00 7.5 -0.8 56   LegendMM LegendMM   100.78     LegendNANA
15:00 7.6 0.5 61   LegendMM LegendMM   100.77     LegendNANA
16:00 7.4 0.7 62   LegendMM LegendMM   100.80     LegendNANA
17:00 7.7 -0.3 57   LegendMM LegendMM   100.84     LegendNANA
18:00 6.8 -0.2 61   LegendMM LegendMM   100.90     LegendNANA
19:00 6.6 -1.5 56   LegendMM LegendMM   100.94     LegendNANA
20:00 6.3 -2.6 53   LegendMM LegendMM   100.99     LegendNANA
21:00 6.8 -2.9 50   LegendMM LegendMM   100.96     LegendNANA
22:00 6.4 -1.9 55   LegendMM LegendMM   101.01     LegendNANA
23:00 7.0 -1.6 54   LegendMM LegendMM   101.02     LegendNANA

Notes on Data Quality.

Legend

  • E = Estimated
  • M = Missing
  • NA = Not Available*
  • [empty] = Indicates an unobserved value
Date modified: